Powrót do katalogu

COSMOS 249 DEB

AktywnyLEO
NORAD 18551·DEBRIS·🇷🇺 Russia

Wystrzelony Oct 20, 1968 z Baikonur Cosmodrome

Loading…

Następne Przeloty (najbliższe 24 godziny)

TLE

ŚwieżeSource: Space-Track

Epoka: Sep 14, 2026, 10:20 UTC

1 18551U 68091DF  26257.43062594  .00000596  00000-0  31083-3 0  9997
2 18551  62.2960 260.7305 0690228 211.3328 227.6538 13.40123628658492

Śledź COSMOS 249 DEB w czasie rzeczywistym z AllMySat

Download on the App Store